Regional Weather Roundup
Issued by NWS Grand Forks, ND

Home | Current Version | Previous Version | Graphics & Text | Print | Product List | Glossary On
Versions: 1 2 3 4 5 6 7 8 9 10 11 12 13 14 15 16 17 18 19 20 21 22 23 24 25 26 27 28 29 30 31 32 33 34 35 36 37 38 39 40 41 42 43 44 45 46 47 48 49 50
000
ASUS43 KFGF 060431
RWRFGF
PRAIRIE TO PINES  WEATHER ROUNDUP
NATIONAL WEATHER SERVICE EASTERN NORTH DAKOTA/GRAND FORKS ND
1100 PM CDT SUN JUL 05 2015

 **SATELLITE DATA USED TO AUGMENT SKY COVER AT AUTOMATED STATIONS**
 *****  WEATHER ACROSS EASTERN NORTH DAKOTA  *****

CITY           SKY/WX    TMP DP  RH WIND       PRES   REMARKS
GRAND FORKS    CLOUDY    63  60  90 NW5       29.88R FOG
GRAND FRKS AFB MOCLDY    64  61  88 NW5       29.89R FOG
GRAND FRKS NWS   N/A     63 N/A N/A MISG        N/A
DEVILS LAKE    CLOUDY    66  54  63 N12       29.92S
FARGO          MOCLDY    72  65  78 N9        29.87R
WAHPETON ARPT  CLOUDY    70  63  78 N12G18    29.87R
$$

 ***** WEATHER ACROSS CENTRAL AND WESTERN NORTH DAKOTA  *****

CITY           SKY/WX    TMP DP  RH WIND       PRES   REMARKS
BISMARCK       CLOUDY    69  60  73 NW5       29.98R HAZE
MINOT          CLOUDY    62  53  72 NW10      29.99R
JAMESTOWN      CLOUDY    68  63  84 N10       29.92R HAZE
MINOT AFB      CLOUDY    63  61  94 NW9       29.99R
GARRISON         N/A     60  56  86 N6        30.00R
WILLISTON      CLOUDY    65  52  62 N7        30.06R
DICKINSON      CLOUDY    61  51  70 N7        30.04R
HETTINGER      CLOUDY    61  57  87 NW6       30.06R FOG
$$

 *****  OTHER AIRPORT OBSERVATIONS IN OUR AREA  *****

CITY           SKY/WX    TMP DP  RH WIND       PRES   REMARKS
WALHALLA       FAIR      64  64 100 MISG      29.91R FOG
GRAFTON AIRPOR FAIR      63  63 100 NW6       29.89R FOG
VALLEY CITY AR LGT RAIN  68  66  94 N12       29.92R
CANDO          FAIR      63  55  77 N10       29.96R HAZE
CAVALIER APRT  FAIR      64  59  82 N7        29.90R HAZE
GWINNER        FAIR      72  66  83 N9        29.89R
ROLLA          CLOUDY    59  55  88 NW12      29.98S
 ***** THE ABOVE OBSERVATIONS ARE NON NWS ARE NOT QUALITY
       CONTROLLED AND MAY MIS-REPORT RAIN FOR SNOW...
$$

  *****  WEATHER ACROSS NORTHERN MINNESOTA  *****

CITY           SKY/WX    TMP DP  RH WIND       PRES   REMARKS
FLAG ISLAND    MOCLDY    66  61  82 N14       29.83R HAZE
WARROAD        PTCLDY    63  57  82 CALM      29.86R FOG
ROSEAU         MOCLDY    63  57  82 NW3       29.86R HAZE
HALLOCK          N/A     64  61  88 NW7       29.87R FOG
THF RVR FALLS  CLOUDY    64  61  88 NW8       29.89R
BAUDETTE       CLOUDY    65  60  84 NW8       29.83R HAZE
WASKISH        CLEAR     66  63  88 NW5       29.84R
CROOKSTON      PTCLDY    64  63  94 N7        29.89R FOG
STEPHEN NDAWN    N/A    N/A N/A N/A NW3         N/A
GREENBUSH NDAW   N/A     61  59  94 NW3         N/A
$$
  *****  WEATHER ACROSS CENTRAL AND WEST MINNESOTA  *****

CITY           SKY/WX    TMP DP  RH WIND       PRES   REMARKS
FOSSTON        PTCLDY    63  61  94 CALM      29.89R FOG
BEMIDJI        CLEAR     65  63  94 NW7       29.87R
PARK RAPIDS    PTCLDY    69  65  86 N12       29.82S
ELBOW LAKE     LGT RAIN  73  67  82 N8        29.87R
WADENA         PTCLDY    68  66  94 NW6       29.83R
DETROIT LAKES  CLEAR     68  64  88 N10       29.87F
MOORHEAD       PTCLDY    70  64  83 N10       29.87F
FERGUS FALLS   MOCLDY    70  64  83 N8        29.86R
MORRIS MN      LGT RAIN  70  66  88 CALM      29.86R
STAPLES        MOCLDY    70  66  88 N5        29.81F
$$
  *****  WEATHER ELSEWHERE ACROSS MINNESOTA  *****

CITY           SKY/WX    TMP DP  RH WIND       PRES   REMARKS
DULUTH         TSTM      67  64  90 W8        29.83S FOG
INTRNTL FALLS  CLOUDY    63  59  87 NW3       29.82R
ELY            CLOUDY    66  64  94 CALM      29.81R
CLOQUET        TSTM      66  64  94 W3        29.80F
WHEATON        RAIN      68  64  88 NW6       29.89R
BRAINERD       RAIN      69  67  93 N12       29.82F FOG
HIBBING        CLOUDY    67  65  93 N6        29.81R
ALEXANDRIA     LGT RAIN  70  68  93 NW14      29.83F
SAINT CLOUD    CLOUDY    79  70  74 S12       29.77F
MINNEAPOLIS    CLOUDY    80  66  62 S13       29.81R
$$

  *****  WEATHER ACROSS SOUTH DAKOTA  *****

CITY           SKY/WX    TMP DP  RH WIND       PRES   REMARKS
SIOUX FALLS    CLOUDY    80  73  79 S16G22    29.75F THUNDER
BROOKINGS      CLOUDY    66  63  88 N20G30    29.85F THUNDER
WATERTOWN      CLOUDY    69  67  93 N10       29.85F
HURON          LGT RAIN  73  68  84 N16       29.81R
SISSETON         N/A     72  67  84 N7        29.88R
ABERDEEN       CLOUDY    73  65  75 N12       29.88R
MITCHELL       TSTM      72  71  97 NW13G21   29.74F FOG
PIERRE         LGT RAIN  68  65  90 N16       29.90R
MOBRIDGE       LGT RAIN  67  63  87 N10       29.92R FOG
RAPID CITY     LGT RAIN  62  60  93 N16G24    30.07R FOG
$$

  *****  SOME WEATHER IN NEARBY STATES *****

CITY           SKY/WX    TMP DP  RH WIND       PRES   REMARKS
GLASGOW MT     CLOUDY    62  49  62 W6        30.12R
GREAT FALLS MT CLOUDY    50  49  96 SE5       30.26S
CHEYENNE WY    MOCLDY    61  57  87 N15       30.13R
SCOTTSBLUFF NE CLOUDY    66  66 100 N15G23    30.01R
OMAHA NE       TSTM      83  75  77 SW8       29.83R HX  90
DES MOINES IA  PTCLDY    78  68  71 S13       29.88R
DAVENPORT IA   CLEAR     73  65  75 S8        29.97F
CHICAGO IL     CLEAR     72  61  68 S7        30.00F
EAU CLAIRE WI  CLEAR     74  65  73 S8        29.85R
LA CROSSE WI   CLEAR     76  65  68 S9        29.88R
$$

  *****  SOME NATIONAL WEATHER *****

CITY           SKY/WX    TMP DP  RH WIND       PRES   REMARKS
LA GUARDIA NY  PTCLDY    76  65  68 S5        30.14R
RALEIGH NC     MOCLDY    70  68  93 CALM      30.10F
ATLANTA GA     MOCLDY    74  68  81 W8        30.14S
NEW ORLEANS LA CLOUDY    73  67  81 S6        30.11R
OKLAHOMA CITY  MOCLDY    80  71  74 SE14      29.95R
ALBUQUERQUE NM CLOUDY    71  57  61 W3        30.14R
SALT LAKE CITY PTCLDY    79  61  53 N7        30.00R
LOS ANGELES CA CLOUDY    64  59  83 W9        29.99R
BOISE ID       PTCLDY    73  54  51 SE6       29.95R
SEATTLE WA     PTCLDY    81  44  27 N5        29.85S
$$

*** WEATHER ACROSS MANITOBA...SASKATCHEWAN AND ONTARIO ***
                ***ONTARIO***

CITY           SKY/WX    TMP DP  RH WIND       PRES   REMARKS
GERALDTON      LGT RAIN  66  61  82 S12       29.75S FOG
THUNDER BAY    LGT RAIN  61  59  94 E8        29.75F
SIOUX LOOKOUT  CLOUDY    57  55  94 CALM      29.80R
TORONTO        MOCLDY    72  61  68 W5        30.09F
BIG TROUT LK   CLOUDY    54  52  94 NW8       29.67  FOG
PICKLE LAKE    NOT AVBL
DRYDEN         FOG       59  59 100 W3        29.81F VSB 1/4
KENORA         MOCLDY    63  59  88 NW7       29.84S SMOKE
$$
                *** MANITOBA***

CITY           SKY/WX    TMP DP  RH WIND       PRES   REMARKS
BRANDON        PTCLDY    54  52  94 N6        29.99R SMOKE
DAUPHIN        PTCLDY    54  48  82 W5        30.03R
ISLAND LAKE    MOCLDY    48  43  81 NW13G23   29.84F
PILOT MOUND      N/A     61  54  77 N14G22      N/A
THE PAS        PTCLDY    54  39  58 N9        30.05R
THOMPSON       MOCLDY    45  39  81 NW5       29.96R
WINNIPEG       CLEAR     59  55  88 N16       29.93R SMOKE
LYNN LAKE      CLEAR     46  41  81 SE2       30.04S
CHURCHILL      MOCLDY    41  39  93 N20G28    29.83S
GILLAM         LGT RAIN  45  45 100 N24G31    29.79R
$$
                ***SASKATCHEWAN***

CITY           SKY/WX    TMP DP  RH WIND       PRES   REMARKS
ESTEVAN        CLOUDY    55  50  82 N8        30.05R
KINDERSLEY     CLOUDY    55  52  88 N6        30.17R
LLOYDMINSTER   MOCLDY    52  43  71 SW5       30.16R
PRINCE ALBERT  MOCLDY    52  46  82 W5        30.11R
REGINA         CLOUDY    59  50  72 N9        30.09R
YORKTON        CLEAR     54  48  82 N10       30.06R
N. BATTLEFORD  CLEAR     52  46  82 NW2       30.17R
LA RONGE       NOT AVBL
SASKATOON      PTCLDY    52  45  76 N6        30.14R
SWIFT CURRENT  CLOUDY    57  48  72 NW7       30.15R
$$
NOTE: THESE ARE AUTOMATED STATIONS WITH LIMITED QUALITY CONTROL
      "FAIR" INDICATES FEW OR NO CLOUDS BELOW 12,000 FEET WITH NO
      SIGNIFICANT WEATHER AND/OR OBSTRUCTIONS TO VISIBILITY.
      SKY/WX - SKY CONDITION AND SIGNIFICANT WEATHER.
      TMP - AIR TEMPERATURE.    DP   - DEWPOINT TEMPERATURE.
      RH  - RELATIVE HUMIDITY.  PRES - PRESSURE.
      HX  - HEAT INDEX.         WCI  - WIND CHILL INDEX.
$



USA.gov is the U.S. government's official web portal to all federal, state and local government web resources and services.